Location: Albany
(35.0000°S, 118.0000°E)
Time: 02:57:48
(UTC-05:00)

JAS-1B - Visible Passes

Search period start: 19 December 2014 00:00
Search period end: 29 December 2014 00:00
Orbit: 912 x 1743 km, 99.1° (Epoch: 18 December)

Date Brightness Start Highest point End Pass type
(mag) Time Alt. Az. Time Alt. Az. Time Alt. Az.
19 Dec 9.4 09:47:21 12° E 09:50:11 15° ESE 09:53:34 10° SSE visible
19 Dec 7.3 11:39:36 77° N 11:40:13 87° WNW 11:46:58 10° SSW visible
19 Dec 9.3 13:31:52 12° W 13:31:52 12° W 13:33:43 10° WSW visible
20 Dec 9.1 10:06:44 18° E 10:08:59 21° ESE 10:13:39 10° SSE visible
20 Dec 7.4 11:59:00 64° WNW 11:59:14 64° WNW 12:05:53 10° SSW visible
21 Dec 8.7 10:26:08 26° E 10:27:51 29° ESE 10:33:18 10° SSE visible
21 Dec 7.8 12:18:24 45° W 12:18:24 45° W 12:24:38 10° SSW visible
22 Dec 8.2 10:45:32 37° E 10:46:46 40° ESE 10:52:43 10° S visible
22 Dec 8.3 12:37:47 32° W 12:37:47 32° W 12:43:12 10° SW visible
23 Dec 7.7 11:04:55 52° E 11:05:44 55° ESE 11:11:59 10° S visible
23 Dec 8.7 12:57:11 22° W 12:57:11 22° W 13:01:27 10° SW visible
24 Dec 9.5 09:34:29 10° ESE 09:34:50 10° ESE 09:35:09 10° ESE visible
24 Dec 7.3 11:24:18 74° ENE 11:24:43 77° ESE 11:31:06 10° S visible
24 Dec 9.1 13:16:34 14° W 13:16:34 14° W 13:19:05 10° WSW visible
25 Dec 9.2 09:51:26 13° E 09:53:34 15° ESE 09:57:02 10° SSE visible
25 Dec 7.2 11:43:42 77° WNW 11:43:44 77° WNW 11:50:06 10° SSW visible
26 Dec 8.8 10:10:49 20° E 10:12:23 22° ESE 10:17:00 10° SSE visible
26 Dec 7.5 12:03:05 54° W 12:03:05 54° W 12:08:57 10° SSW visible
27 Dec 8.4 10:30:12 29° E 10:31:16 31° ESE 10:36:36 10° S visible
27 Dec 8.0 12:22:28 37° W 12:22:28 37° W 12:27:37 10° SSW visible
28 Dec 7.9 10:49:35 42° E 10:50:12 43° ESE 10:55:58 10° S visible
28 Dec 8.5 12:41:50 25° W 12:41:50 25° W 12:46:03 10° SW visible
